EW1556 Weather Reports


Display with metric or nautical units.
time (UTC)temp
F
wind
direction
speed
MPH
gust
MPH
rain 1hr
in
rain 24hr
in
rain mn
in
humidity
%
barometer
mb
20260903174550 57 273 3.0 5.0 0.00 0.03 0.00 58 1010.5
20260903173047 56 293 2.0 6.0 0.00 0.03 0.00 61 1010.5
20260903171559 56 258 2.0 6.0 0.00 0.03 0.00 62 1010.3
20260903170145 55 199 0.0 3.0 0.00 0.03 0.00 64 1010.5
20260903164558 55 242 0.0 2.0 0.00 0.03 0.00 67 1010.5
20260903163037 54 214 0.0 0.0 0.00 0.03 0.00 67 1010.6
20260903161535 53 273 0.0 3.0 0.00 0.03 0.00 69 1010.5
20260903160035 53 129 0.0 0.0 0.00 0.03 0.00 72 1010.8
20260903154538 52 132 0.0 2.0 0.00 0.03 0.00 70 1010.7
20260903153031 51 302 1.0 2.0 0.00 0.03 0.00 74 1010.7
20260903151530 50 262 0.0 3.0 0.00 0.03 0.00 80 1010.8
20260903150029 49 270 0.0 0.0 0.00 0.03 0.00 83 1010.7
20260903144541 48 268 0.0 0.0 0.00 0.03 0.00 84 1010.6
20260903143038 47 268 0.0 0.0 0.00 0.03 0.00 83 1010.6
20260903141523 0 0.0 0.0 0.00 0.03 0.00 1010.5
20260903140022 0 0.0 0.0 0.00 0.03 0.00 1010.4
20260903134514 0 0.0 0.0 0.00 0.03 0.00 1010.4
20260903133010 0 0.0 0.0 0.00 0.03 0.00 1010.2
20260903131506 0 0.0 0.0 0.00 0.03 0.00 1010.4
20260903130001 0 0.0 0.0 0.00 0.03 0.00 1010.3
20260903124608 0 0.0 0.0 0.00 0.03 0.00 1010.2
20260903123058 0 0.0 0.0 0.00 0.03 0.00 1010.2
20260903121600 0 0.0 0.0 0.00 0.03 0.00 1010.3
20260903120059 47 295 0.0 0.0 0.00 0.03 0.00 82 1010.3
20260903114550 45 278 0.0 0.0 0.00 0.03 0.00 83 1010.3
20260903113127 46 231 0.0 1.0 0.00 0.03 0.00 81 1010.2
20260903111548 44 214 1.0 4.0 0.00 0.03 0.00 85 1010.3
20260903110048 44 278 2.0 4.0 0.00 0.03 0.00 84 1010.1
20260903104556 44 279 4.0 5.0 0.00 0.03 0.00 85 1009.9
20260903103044 44 285 3.0 5.0 0.00 0.03 0.00 85 1010.0
20260903101549 44 285 2.0 3.0 0.00 0.03 0.00 84 1009.8
20260903101512 44 285 2.0 3.0 0.00 0.03 0.00 84 1009.9
20260903100041 45 264 2.0 3.0 0.00 0.03 0.00 81 1009.8
20260903094548 46 283 3.0 6.0 0.00 0.03 0.00 80 1009.7
20260903093039 45 280 4.0 5.0 0.00 0.03 0.00 82 1009.7
20260903091546 45 271 3.0 5.0 0.00 0.03 0.00 80 1009.8
20260903090038 47 245 2.0 4.0 0.00 0.03 0.00 79 1009.8
20260903084529 46 243 2.0 3.0 0.00 0.03 0.00 81 1009.7
20260903083026 47 278 2.0 3.0 0.00 0.03 0.00 79 1009.7
20260903081525 48 258 1.0 4.0 0.00 0.03 0.00 78 1009.5
20260903080023 48 259 1.0 3.0 0.00 0.03 0.00 78 1009.4
20260903074519 51 295 3.0 10.0 0.00 0.03 0.00 74 1009.4
20260903073118 51 267 5.0 10.0 0.00 0.03 0.00 76 1009.2
20260903071518 52 263 7.0 13.0 0.00 0.03 0.00 72 1008.9
20260903070009 51 257 5.0 7.0 0.00 0.03 0.03 79 1008.8
20260903064507 51 239 2.0 5.0 0.00 0.03 0.03 79 1008.8
20260903063009 51 262 2.0 6.0 0.00 0.03 0.03 78 1008.8
20260903061507 52 269 3.0 7.0 0.00 0.03 0.03 77 1008.6
20260903060004 53 283 5.0 8.0 0.00 0.03 0.03 77 1008.6
20260903054504 53 285 4.0 6.0 0.00 0.03 0.03 79 1008.6
20260903053002 54 285 4.0 7.0 0.00 0.03 0.03 79 1008.3
20260903051502 55 276 6.0 11.0 0.00 0.03 0.03 77 1008.3
20260903050101 54 255 6.0 10.0 0.00 0.03 0.03 80 1008.2
20260903044601 54 270 4.0 6.0 0.00 0.04 0.03 81 1008.1
20260903043157 54 281 6.0 9.0 0.00 0.04 0.03 80 1007.8
20260903041603 54 274 2.0 5.0 0.00 0.04 0.03 82 1007.3
20260903040056 55 272 9.0 14.0 0.00 0.04 0.03 78 1007.7
20260903034555 56 287 8.0 13.0 0.00 0.04 0.03 75 1007.5
20260903033055 57 255 6.0 12.0 0.00 0.04 0.03 72 1007.4
20260903031558 58 262 7.0 11.0 0.00 0.04 0.03 70 1007.1
20260903030053 58 219 3.0 9.0 0.00 0.04 0.03 70 1006.7
20260903024552 58 171 6.0 11.0 0.00 0.04 0.03 69 1006.2
20260903023052 58 228 7.0 12.0 0.00 0.04 0.03 69 1006.1
20260903021551 59 223 7.0 11.0 0.00 0.04 0.03 69 1006.2
20260903020050 59 209 6.0 12.0 0.00 0.04 0.03 71 1006.2
20260903014650 59 174 3.0 8.0 0.00 0.04 0.03 75 1006.2
20260903013103 59 168 4.0 8.0 0.00 0.04 0.03 77 1006.2
20260903011549 59 216 3.0 8.0 0.00 0.04 0.03 77 1006.3
20260903010050 59 210 5.0 8.0 0.00 0.04 0.03 75 1006.4
20260903004548 59 176 3.0 11.0 0.00 0.04 0.03 75 1006.4
20260903003049 60 125 5.0 10.0 0.00 0.04 0.03 74 1006.4
20260903001546 60 217 5.0 9.0 0.00 0.04 0.03 73 1006.4
20260903000047 60 195 4.0 11.0 0.00 0.04 0.03 73 1006.4
20260902234602 61 260 6.0 14.0 0.00 0.04 0.03 69 1006.4
20260902233045 61 259 8.0 15.0 0.00 0.04 0.03 68 1006.4
20260902231544 61 246 7.0 14.0 0.00 0.04 0.03 67 1006.3
20260902230044 61 224 5.0 14.0 0.00 0.04 0.03 69 1006.1
20260902224605 60 225 6.0 14.0 0.00 0.04 0.03 69 1006.2
20260902223043 60 207 10.0 18.0 0.00 0.04 0.03 69 1006.0
20260902221542 60 229 7.0 13.0 0.00 0.04 0.03 70 1006.0
20260902220046 60 203 6.0 14.0 0.00 0.04 0.03 71 1006.1
20260902214540 60 205 9.0 16.0 0.00 0.04 0.03 70 1005.9
20260902213040 60 161 2.0 5.0 0.00 0.04 0.03 74 1006.1
20260902211540 59 150 1.0 4.0 0.00 0.04 0.03 75 1006.2
20260902210038 59 262 1.0 5.0 0.01 0.04 0.03 75 1006.1
20260902204541 59 213 2.0 7.0 0.02 0.04 0.03 75 1006.3
20260902203037 59 257 3.0 7.0 0.02 0.04 0.03 76 1006.4
20260902201547 58 205 3.0 7.0 0.03 0.04 0.03 75 1006.4
20260902200050 59 215 3.0 9.0 0.02 0.03 0.02 72 1006.3
20260902194534 60 251 3.0 9.0 0.01 0.02 0.01 70 1006.4
20260902193034 60 258 5.0 9.0 0.01 0.02 0.01 69 1006.4
20260902191535 59 241 3.0 6.0 0.00 0.01 0.00 72 1006.3
20260902190047 59 275 5.0 12.0 0.00 0.01 0.00 71 1006.4
20260902184533 61 226 8.0 13.0 0.00 0.01 0.00 62 1006.1
20260902183031 64 264 10.0 16.0 0.00 0.01 0.00 53 1006.0
20260902181533 67 216 8.0 17.0 0.00 0.01 0.00 44 1005.6
20260902180028 68 213 7.0 15.0 0.00 0.01 0.00 45 1005.5